Weather History for KCVX - March, 2013

Change the Weather History Date:

Friday, March 15, 2013

  Actual Average (WUND) Record (WUND)
Temperature  
Mean Temperature 28 °F -  
Max Temperature 33 °F - - (-1)
Min Temperature 22 °F - - (-1)
Degree Days  
Heating Degree Days 38    
Moisture  
Dew Point 23 °F    
Average Humidity 76    
Maximum Humidity 99    
Minimum Humidity 59    
Precipitation  
Precipitation 0.00 in - - ()
Sea Level Pressure  
Sea Level Pressure 29.93 in    
Wind  
Wind Speed 13 mph (NW)    
Max Wind Speed 18 mph    
Max Gust Speed 26 mph    
Visibility 9 miles    
Events Snow    
Averages and records for this station are not official NWS values.
T = Trace of Precipitation, MM = Missing Value Source: NWS Daily Summary

Daily Weather History Graph

Daily Weather History Graph

Search for Another Location

Airport or City:

Trip Planner

Search our weather history database for the weather conditions in past years. The results will help you decide how hot, cold, wet, or windy it might be!

Date:

Astronomy

Mar. 15, 2013 Rise Set
Actual Time 7:53 AM EDT 7:47 PM EDT
Civil Twilight 7:23 AM EDT 8:16 PM EDT
Nautical Twilight 6:49 AM EDT 8:51 PM EDT
Astronomical Twilight 6:14 AM EDT 9:26 PM EDT
Moon 9:30 AM EDT (3/15) No Moon Set
Length of Visible Light 12h 53m
Length of Day
11h 54m
Waxing Crescent, 15% of the Moon is Illuminated
Mar 15
Waxing Crescent
Mar 19
First Quarter
Mar 27
Full
Apr 3
Last Quarter
Apr 10
New

Hourly Weather History & Observations

Time (EDT) Temp. Windchill Dew Point Humidity Pressure Visibility Wind Dir Wind Speed Gust Speed Precip Events Conditions
12:14 AM 31.8 °F 23.3 °F 24.8 °F 75% 29.97 in 10.0 mi SW 10.4 mph - N/A   Overcast
12:35 AM 32.4 °F 22.5 °F 27.1 °F 81% 29.97 in 7.0 mi WSW 13.8 mph 20.7 mph N/A Snow Light Snow
12:54 AM 32.5 °F 22.7 °F 29.3 °F 88% 29.95 in 2.0 mi WSW 13.8 mph 21.9 mph N/A Snow Light Snow
1:15 AM 32.0 °F 22.1 °F 31.5 °F 98% 29.94 in 1.2 mi WSW 13.8 mph 20.7 mph N/A Snow Light Snow
1:34 AM 32.0 °F 20.8 °F 31.6 °F 99% 29.94 in 2.0 mi WSW 17.3 mph 24.2 mph N/A Snow Light Snow
1:54 AM 32.0 °F 22.5 °F 31.5 °F 98% 29.93 in 4.0 mi WSW 12.7 mph 26.5 mph N/A Snow Light Snow
2:14 AM 32.2 °F 21.4 °F 31.1 °F 96% 29.93 in 4.0 mi WSW 16.1 mph - N/A Snow Light Snow
2:34 AM 32.9 °F 22.0 °F 30.2 °F 90% 29.92 in 4.0 mi WSW 17.3 mph 24.2 mph N/A Snow Light Snow
2:54 AM 32.5 °F 21.2 °F 30.6 °F 92% 29.91 in 4.0 mi WSW 18.4 mph 26.5 mph N/A Snow Light Snow
3:15 AM 32.9 °F 22.8 °F 30.2 °F 90% 29.91 in 4.0 mi WSW 15.0 mph 23.0 mph N/A Snow Light Snow
3:34 AM 32.4 °F 21.7 °F 31.1 °F 95% 29.90 in 2.5 mi WSW 16.1 mph - N/A Snow Light Snow
3:54 AM 32.7 °F 21.8 °F 31.3 °F 94% 29.90 in 7.0 mi WSW 17.3 mph 23.0 mph N/A   Overcast
4:14 AM 33.1 °F 23.0 °F 31.1 °F 92% 29.89 in 7.0 mi WSW 15.0 mph 20.7 mph N/A   Overcast
4:34 AM 33.3 °F 23.7 °F 31.1 °F 92% 29.88 in 7.0 mi WSW 13.8 mph - N/A   Overcast
4:54 AM 33.3 °F 22.8 °F 31.5 °F 93% 29.87 in 7.0 mi West 16.1 mph 20.7 mph N/A   Overcast
5:14 AM 33.4 °F 23.1 °F 31.5 °F 92% 29.87 in 7.0 mi West 16.1 mph 20.7 mph N/A   Overcast
5:35 AM 33.4 °F 22.7 °F 31.1 °F 91% 29.87 in 10.0 mi West 17.3 mph - N/A   Overcast
5:54 AM 33.8 °F 24.3 °F 31.5 °F 91% 29.87 in 10.0 mi West 13.8 mph - N/A   Overcast
6:15 AM 33.8 °F 23.5 °F 31.5 °F 91% 29.87 in 10.0 mi West 16.1 mph - N/A   Overcast
6:34 AM 33.8 °F 23.9 °F 31.1 °F 90% 29.87 in 10.0 mi WNW 15.0 mph - N/A   Overcast
6:55 AM 33.6 °F 24.6 °F 30.7 °F 89% 29.88 in 10.0 mi WNW 12.7 mph - N/A   Overcast
7:14 AM 32.9 °F 22.0 °F 30.9 °F 92% 29.88 in 10.0 mi NW 17.3 mph 24.2 mph N/A   Overcast
7:34 AM 32.2 °F 21.8 °F 30.6 °F 94% 29.89 in 10.0 mi NW 15.0 mph 20.7 mph N/A   Overcast
7:54 AM 32.0 °F 22.1 °F 29.7 °F 91% 29.89 in 10.0 mi NW 13.8 mph 18.4 mph N/A   Overcast
8:15 AM 31.8 °F 22.8 °F 27.5 °F 84% 29.91 in 10.0 mi NNW 11.5 mph 20.7 mph N/A   Overcast
8:34 AM 31.6 °F 22.1 °F 26.4 °F 81% 29.91 in 10.0 mi NW 12.7 mph 16.1 mph N/A   Overcast
8:55 AM 30.9 °F 21.7 °F 24.6 °F 77% 29.92 in 10.0 mi NNW 11.5 mph 19.6 mph N/A   Overcast
9:15 AM 30.7 °F 20.4 °F 24.8 °F 79% 29.92 in 10.0 mi NNW 13.8 mph 18.4 mph N/A   Mostly Cloudy
9:34 AM 30.6 °F 20.7 °F 23.9 °F 76% 29.93 in 10.0 mi NW 12.7 mph 21.9 mph N/A   Mostly Cloudy
9:55 AM 30.0 °F 18.7 °F 22.1 °F 72% 29.93 in 10.0 mi NNW 16.1 mph 20.7 mph N/A   Mostly Cloudy
10:15 AM 30.2 °F 18.1 °F 21.2 °F 69% 29.93 in 10.0 mi NW 18.4 mph - N/A   Mostly Cloudy
10:34 AM 30.2 °F 19.3 °F 20.7 °F 68% 29.93 in 10.0 mi NW 15.0 mph 24.2 mph N/A   Overcast
10:55 AM 29.7 °F 19.6 °F 20.3 °F 68% 29.94 in 10.0 mi NNW 12.7 mph - N/A   Overcast
11:15 AM 30.0 °F 21.1 °F 21.4 °F 70% 29.94 in 10.0 mi NNW 10.4 mph - N/A   Overcast
11:34 AM 30.0 °F 20.5 °F 21.9 °F 72% 29.94 in 10.0 mi NNW 11.5 mph 17.3 mph N/A   Overcast
11:55 AM 29.7 °F 20.1 °F 22.1 °F 73% 29.94 in 10.0 mi NNW 11.5 mph 17.3 mph N/A   Overcast
12:14 PM 29.7 °F 21.3 °F 21.9 °F 73% 29.93 in 10.0 mi NNW 9.2 mph 17.3 mph N/A   Overcast
12:35 PM 29.8 °F 19.8 °F 21.4 °F 71% 29.94 in 10.0 mi NW 12.7 mph 17.3 mph N/A   Overcast
12:55 PM 30.2 °F 21.3 °F 20.7 °F 68% 29.94 in 10.0 mi NNW 10.4 mph 20.7 mph N/A   Overcast
1:14 PM 30.2 °F 21.3 °F 20.7 °F 68% 29.94 in 10.0 mi NW 10.4 mph 19.6 mph N/A   Overcast
1:35 PM 30.7 °F 22.6 °F 19.9 °F 64% 29.94 in 10.0 mi NNW 9.2 mph 16.1 mph N/A   Mostly Cloudy
1:54 PM 30.2 °F 20.8 °F 21.9 °F 71% 29.94 in 10.0 mi NW 11.5 mph - N/A   Mostly Cloudy
2:14 PM 30.7 °F 21.4 °F 22.3 °F 71% 29.94 in 10.0 mi NW 11.5 mph 18.4 mph N/A   Overcast
2:35 PM 30.0 °F 20.0 °F 21.9 °F 72% 29.94 in 10.0 mi North 12.7 mph 17.3 mph N/A   Overcast
2:54 PM 29.3 °F 18.6 °F 23.4 °F 78% 29.94 in 10.0 mi North 13.8 mph 18.4 mph N/A   Overcast
3:14 PM 29.3 °F 20.2 °F 21.4 °F 72% 29.94 in 10.0 mi North 10.4 mph 16.1 mph N/A   Overcast
3:35 PM 29.1 °F 18.4 °F 21.7 °F 74% 29.94 in 10.0 mi North 13.8 mph 19.6 mph N/A   Overcast
3:54 PM 28.9 °F 19.8 °F 20.7 °F 71% 29.94 in 10.0 mi NNW 10.4 mph 18.4 mph N/A   Overcast
4:15 PM 28.4 °F 18.5 °F 19.2 °F 69% 29.95 in 10.0 mi North 11.5 mph 20.7 mph N/A   Mostly Cloudy
4:35 PM 27.9 °F 18.4 °F 18.1 °F 67% 29.95 in 10.0 mi North 10.4 mph 17.3 mph N/A   Scattered Clouds
4:54 PM 28.0 °F 18.6 °F 18.3 °F 67% 29.95 in 10.0 mi North 10.4 mph - N/A   Clear
5:15 PM 27.9 °F 17.8 °F 17.6 °F 65% 29.95 in 10.0 mi North 11.5 mph - N/A   Clear
5:35 PM 27.5 °F 18.6 °F 17.1 °F 65% 29.96 in 10.0 mi North 9.2 mph - N/A   Scattered Clouds
5:54 PM 27.3 °F 17.7 °F 16.7 °F 64% 29.95 in 10.0 mi North 10.4 mph 16.1 mph N/A   Scattered Clouds
6:15 PM 27.0 °F 17.3 °F 16.3 °F 64% 29.95 in 10.0 mi North 10.4 mph - N/A   Mostly Cloudy
6:34 PM 26.6 °F 16.8 °F 16.5 °F 66% 29.95 in 10.0 mi North 10.4 mph - N/A   Overcast
6:54 PM 26.2 °F 17.1 °F 14.2 °F 60% 29.95 in 10.0 mi North 9.2 mph - N/A   Mostly Cloudy
7:15 PM 25.9 °F 16.6 °F 13.3 °F 59% 29.96 in 10.0 mi North 9.2 mph - N/A   Scattered Clouds
7:34 PM 25.7 °F 15.7 °F 14.5 °F 63% 29.96 in 10.0 mi North 10.4 mph - N/A   Mostly Cloudy
7:54 PM 25.7 °F 16.4 °F 14.2 °F 62% 29.97 in 10.0 mi North 9.2 mph - N/A   Mostly Cloudy
8:14 PM 25.7 °F 15.7 °F 14.5 °F 63% 29.97 in 10.0 mi North 10.4 mph - N/A   Scattered Clouds
8:34 PM 25.3 °F 16.0 °F 13.6 °F 61% 29.98 in 10.0 mi North 9.2 mph - N/A   Scattered Clouds
8:55 PM 25.2 °F 14.4 °F 15.3 °F 66% 29.98 in 10.0 mi North 11.5 mph 16.1 mph N/A   Mostly Cloudy
9:14 PM 24.4 °F 14.2 °F 14.7 °F 67% 29.98 in 10.0 mi North 10.4 mph 18.4 mph N/A   Overcast
9:34 PM 23.9 °F 13.5 °F 14.0 °F 66% 29.99 in 10.0 mi North 10.4 mph - N/A   Overcast
9:55 PM 23.7 °F 13.3 °F 13.6 °F 65% 29.97 in 10.0 mi North 10.4 mph - N/A   Overcast
10:14 PM 23.5 °F 13.0 °F 14.0 °F 67% 29.98 in 10.0 mi North 10.4 mph - N/A   Overcast
10:35 PM 23.0 °F 11.7 °F 11.7 °F 62% 29.98 in 10.0 mi North 11.5 mph - N/A   Overcast
10:54 PM 22.8 °F 12.2 °F 12.0 °F 63% 29.97 in 10.0 mi North 10.4 mph - N/A   Overcast
11:14 PM 22.3 °F 13.9 °F 12.7 °F 67% 29.97 in 10.0 mi North 6.9 mph - N/A   Overcast
11:34 PM 22.1 °F 11.3 °F 12.6 °F 67% 29.98 in 10.0 mi North 10.4 mph - N/A   Overcast
11:54 PM 22.1 °F 12.8 °F 13.1 °F 68% 29.97 in 10.0 mi NNE 8.1 mph - N/A   Overcast